Terminal Aerodrome Forecast
Issued by NWS Spokane, WA

Home | Current Version | Previous Version | Text Only | Print | Product List | Glossary On
Versions: 1 2 3 4 5 6 7 8 9 10 11 12 13 14 15 16 17 18 19 20 21 22 23 24 25
000
FTUS46 KOTX 070520
TAFLWS
TAF
KLWS 070520Z 0706/0806 21005KT P6SM VCSH SCT070 BKN100 OVC120
     FM071300 VRB03KT P6SM SCT070
     FM071800 33009KT P6SM FEW060 SCT080=

USA.gov is the U.S. government's official web portal to all federal, state and local government web resources and services.